Location: Bourguignon
(49.5441°N, 3.1585°E)
Time: 07:34:19
(UTC+00:00)

Alouette 2 Rocket - Pass Details

Date: 15 May 2026
Orbit: 501 x 2614 km, 79.8° (Epoch: 5 June)

Event Time Altitude Azimuth Distance (km) Brightness Sun altitude
Rises 23:21:15 0° 351° (N) 2,640 8.4 -21.2°
Reaches altitude 10° 23:23:14 10° 359° (N) 1,812 7.1 -21.3°
Maximum altitude 23:26:55 45° 73° (ENE) 864 4.3 -21.3°
Enters shadow 23:28:14 35° 117° (ESE) 1,089 4.5 -21.3°
